Boothville, LA

6:05 PM CDT on October 17, 2017 (GMT -0500)
Boothville

Weather History for KBVE - April, 2014

Change the Weather History Date:

Monday, April 28, 2014

  Actual Average (KAXO) Record (KAXO)
Temperature  
Mean Temperature 76 °F -  
Max Temperature 81 °F 74 °F 82 °F (1999)
Min Temperature 73 °F 71 °F 66 °F (2008)
Cooling Degree Days 12    
Growing Degree Days 26 (Base 50)    
Moisture  
Dew Point 73 °F    
Average Humidity 89    
Maximum Humidity 97    
Minimum Humidity 81    
Precipitation  
Precipitation 0.00 in - - ()
Sea Level Pressure  
Sea Level Pressure 29.76 in    
Wind  
Wind Speed 17 mph (South)    
Max Wind Speed 23 mph    
Max Gust Speed 32 mph    
Visibility 6 miles    
Events      
Averages and records for this station are not official NWS values.
T = Trace of Precipitation, MM = Missing Value Source: NWS Daily Summary

Daily Weather History Graph

Daily Weather History Graph

Search for Another Location

Airport or City:

Trip Planner

Search our weather history database for the weather conditions in past years. The results will help you decide how hot, cold, wet, or windy it might be!

Date:

Astronomy

Apr. 28, 2014 Rise Set
Actual Time 6:18 AM CDT 7:32 PM CDT
Civil Twilight 5:53 AM CDT 7:57 PM CDT
Nautical Twilight 5:23 AM CDT 8:26 PM CDT
Astronomical Twilight 4:53 AM CDT 8:57 PM CDT
Moon 5:52 AM CDT (4/28) 7:12 PM CDT (4/28)
Length of Visible Light 14h 03m
Length of Day
13h 13m
Waning Crescent, 0% of the Moon is Illuminated
Apr 28
Waning Crescent
Apr 29
New
May 6
First Quarter
May 14
Full
May 21
Last Quarter

Hourly Weather History & Observations

Time (CDT) Temp. Heat Index Dew Point Humidity Pressure Visibility Wind Dir Wind Speed Gust Speed Precip Events Conditions
12:16 AM 75.9 °F - 73.0 °F 91% 29.81 in 6.0 mi South 16.1 mph - N/A   Overcast
12:51 AM 75.9 °F - 73.0 °F 91% 29.80 in 6.0 mi South 16.1 mph 21.9 mph N/A   Overcast
1:09 AM 75.9 °F - 73.0 °F 91% 29.79 in 5.0 mi South 12.7 mph - N/A   Overcast
1:51 AM 75.9 °F - 73.0 °F 91% 29.77 in 5.0 mi SSE 17.3 mph 23.0 mph N/A   Overcast
2:01 AM 75.9 °F - 73.0 °F 91% 29.76 in 5.0 mi SSE 15.0 mph - N/A   Overcast
2:51 AM 73.9 °F - 73.0 °F 97% 29.75 in 4.0 mi SSE 12.7 mph - N/A   Overcast
3:00 AM 75.0 °F - 73.0 °F 94% 29.75 in 5.0 mi SSE 16.1 mph 20.7 mph N/A   Overcast
3:44 AM 75.0 °F - 73.0 °F 94% 29.75 in 5.0 mi SSE 13.8 mph 23.0 mph N/A   Overcast
3:51 AM 75.0 °F - 73.0 °F 94% 29.75 in 5.0 mi SSE 12.7 mph - N/A   Overcast
4:51 AM 73.9 °F - 73.0 °F 97% 29.75 in 4.0 mi SSE 13.8 mph - N/A   Overcast
5:37 AM 73.9 °F - 73.0 °F 97% 29.77 in 4.0 mi South 10.4 mph - N/A   Overcast
5:51 AM 73.9 °F - 73.0 °F 97% 29.77 in 4.0 mi South 11.5 mph - N/A   Overcast
6:51 AM 75.0 °F - 72.0 °F 90% 29.79 in 4.0 mi South 13.8 mph - N/A   Overcast
7:51 AM 75.9 °F - 73.0 °F 91% 29.83 in 5.0 mi South 15.0 mph 23.0 mph N/A   Overcast
8:04 AM 75.9 °F - 73.0 °F 91% 29.82 in 5.0 mi South 16.1 mph - N/A   Overcast
8:51 AM 77.0 °F - 73.0 °F 88% 29.82 in 5.0 mi South 16.1 mph - N/A   Overcast
9:51 AM 78.1 °F - 73.0 °F 84% 29.83 in 5.0 mi South 18.4 mph - N/A   Haze
10:51 AM 79.0 °F - 73.0 °F 82% 29.82 in 6.0 mi South 19.6 mph 27.6 mph N/A   Haze
11:08 AM 79.0 °F - 73.9 °F 84% 29.82 in 6.0 mi South 18.4 mph 27.6 mph N/A   Haze
11:51 AM 80.1 °F 84.5 °F 73.9 °F 81% 29.82 in 6.0 mi South 18.4 mph 25.3 mph N/A   Haze
12:51 PM 80.1 °F 84.5 °F 73.9 °F 81% 29.81 in 6.0 mi South 19.6 mph 26.5 mph N/A   Haze
1:51 PM 80.1 °F 84.5 °F 73.9 °F 81% 29.80 in 7.0 mi South 19.6 mph 29.9 mph N/A   Mostly Cloudy
2:51 PM 80.1 °F 84.5 °F 73.9 °F 81% 29.79 in 7.0 mi South 18.4 mph 26.5 mph N/A   Mostly Cloudy
3:29 PM 80.1 °F 84.5 °F 73.9 °F 81% 29.76 in 7.0 mi South 21.9 mph 27.6 mph N/A   Scattered Clouds
3:51 PM 80.1 °F 84.5 °F 73.9 °F 81% 29.75 in 7.0 mi South 23.0 mph 31.1 mph N/A   Partly Cloudy
4:51 PM 79.0 °F - 73.9 °F 84% 29.73 in 7.0 mi South 19.6 mph 28.8 mph N/A   Mostly Cloudy
5:18 PM 79.0 °F - 73.9 °F 84% 29.72 in 7.0 mi South 21.9 mph 29.9 mph N/A   Scattered Clouds
5:51 PM 78.1 °F - 73.9 °F 87% 29.69 in 6.0 mi South 20.7 mph 29.9 mph N/A   Scattered Clouds
6:41 PM 77.0 °F - 73.9 °F 90% 29.68 in 6.0 mi South 23.0 mph 31.1 mph N/A   Partly Cloudy
6:51 PM 77.0 °F - 73.9 °F 90% 29.69 in 6.0 mi South 21.9 mph 28.8 mph N/A   Scattered Clouds
7:51 PM 75.9 °F - 73.9 °F 94% 29.69 in 6.0 mi South 20.7 mph 28.8 mph N/A   Overcast
8:51 PM 75.9 °F - 73.9 °F 94% 29.71 in 7.0 mi South 20.7 mph 31.1 mph N/A   Partly Cloudy
9:51 PM 75.9 °F - 73.9 °F 94% 29.72 in 7.0 mi South 20.7 mph 32.2 mph N/A   Mostly Cloudy
10:16 PM 75.9 °F - 73.9 °F 94% 29.72 in 6.0 mi South 19.6 mph 27.6 mph N/A   Mostly Cloudy
10:51 PM 75.9 °F - 73.9 °F 94% 29.72 in 6.0 mi South 18.4 mph 27.6 mph N/A   Overcast
11:51 PM 75.9 °F - 73.9 °F 94% 29.71 in 6.0 mi South 20.7 mph 27.6 mph N/A   Overcast